Skip Page Navigation
NASA JPL Caltech
NASA Logo - Jet Propulsion Laboratory + View the NASA Portal
+ Center for Near-Earth Object Studies
JPL Home Earth Solar System Stars & Galaxies Technology
JPL Solar System Dynamics
BODIES ORBITS EPHEMERIDES TOOLS PHYSICAL DATA DISCOVERY FAQ SITE MAP
IMPORTANT: The SSD Announcement email list is now available. Major changes are coming in the near future, including possible hostname and/or URL changes. To be notified of such changes, subscribe to this email list.

Please visit this page for more details.


JPL Small-Body Database Browser
Search: [ help ]  
344155 (2000 UE66)
Classification: Main-belt Asteroid          SPK-ID: 2344155
Ephemeris | Orbit Diagram | Orbital Elements | Mission Design | Physical Parameters | Discovery Circumstances | Close-Approach Data ]

[ show orbit diagram ]
Orbital Elements at Epoch 2458600.5 (2019-Apr-27.0) TDB
Reference: JPL 16 (heliocentric ecliptic J2000)
 Element Value Uncertainty (1-sigma)   Units 
e .1964915497266539 5.7877e-08  
a 2.44328509680563 1.581e-08 au
q 1.963200221710254 1.3597e-07 au
i 3.516829039075058 3.7672e-06 deg
node 274.3448483453295 9.1558e-05 deg
peri 80.66465485057621 9.2636e-05 deg
M 329.5712660434461 1.0535e-05 deg
tp 2458718.407390603027
(2019-Aug-22.90739060)
4.0571e-05 TDB
period 1394.953226699963
3.82
1.354e-05
3.707e-08
d
yr
n .2580731691281514 2.5049e-09 deg/d
Q 2.923369971901006 1.8916e-08 au
  Orbit Determination Parameters
   # obs. used (total)      366  
   data-arc span      6972 days (19.09 yr)  
   first obs. used      2000-09-26  
   last obs. used      2019-10-29  
   planetary ephem.      DE431  
   SB-pert. ephem.      SB431-N16  
   condition code      0  
   norm. resid. RMS      .52825  
   source      ORB  
   producer      Otto Matic  
   solution date      2019-Nov-08 10:23:10  

Additional Information
 Earth MOID = .961278 au 
 Jupiter MOID = 2.53151 au 
 T_jup = 3.471 
[ show covariance matrix ]

Ephemeris | Orbit Diagram | Orbital Elements | Mission Design | Physical Parameters | Discovery Circumstances | Close-Approach Data ]

Physical Parameter Table
Parameter Symbol Value Units Sigma Reference Notes
absolute magnitude H 16.8   n/a MPO418775  

344155 (2000 UE66)          Discovered 2000-Oct-25 by LINEAR at Socorro
Reference: 20121128/Numbers.arcLast Updated: 2012-12-03

[ show close-approach data ]
Ephemeris | Orbit Diagram | Orbital Elements | Mission Design | Physical Parameters | Discovery Circumstances | Close-Approach Data ]
ABOUT SSD CREDITS/AWARDS PRIVACY/COPYRIGHT GLOSSARY LINKS
FirstGov 2019-Dec-11 19:42 UT
(server date/time)  
NASA Home Page
Site Manager:   Ryan S. Park
Webmaster  Alan B. Chamberlin